Back to catalog

STARLINK-37541

AliveCommunicationsSSO
NORAD 68906·PAYLOAD·🇺🇸 United States

Launched Apr 30, 2026 from Vandenberg Space Force Base

Loading…

Next Passes (next 24 hours)

TLE

FreshSource: CelesTrak SupGP

Epoch: Sep 14, 2026, 21:36 UTC

1 68906C 26097M   26257.90048611  .00082169  00000+0  25516-2 0  2577
2 68906  97.2849  92.0565 0001637  94.8632 113.0790 15.33386816    12

Track STARLINK-37541 in real time with AllMySat

Download on the App Store